Location: ??
(35.5052°N, 139.7262°E)
Time: 11:15:33
(UTC+00:00)

FENGYUN 1C DEB - Pass Details

Date: 29 January 2022
Orbit: 707 x 828 km, 98.9° (Epoch: 23 May)

Event Time Altitude Azimuth Distance (km) Brightness Sun altitude
Rises 19:56:56 0° 144° (SE) 3,269 ? -21.7°
Reaches altitude 10° 19:59:26 10° 136° (SE) 2,324 ? -21.2°
Maximum altitude 20:04:05 37° 71° (ENE) 1,174 ? -20.2°
Drops below altitude 10° 20:08:38 10° 5° (N) 2,262 ? -19.3°
Enters shadow 20:16:13 -15° 350° (N) 5,224 ? -17.8°
